Weather History for Cedar City, UT

Change the Weather History Date:

Tuesday, December 11, 2012

  Actual Average Record
Temperature  
Mean Temperature 32 °F 29 °F  
Max Temperature 49 °F 42 °F 64 °F (1950)
Min Temperature 14 °F 16 °F -11 °F (1961)
Degree Days  
Heating Degree Days 33 36  
Month to date heating degree days 293 385  
Since 1 July heating degree days 1429 1827  
Cooling Degree Days 0 0  
Month to date cooling degree days 0 0  
Year to date cooling degree days 715 588  
Moisture  
Dew Point 16 °F    
Average Humidity 55    
Maximum Humidity 81    
Minimum Humidity 29    
Precipitation  
Precipitation 0.00 in 0.02 in 0.13 in (1985)
Month to date precipitation T 0.28  
Year to date precipitation 11.45 10.75  
Sea Level Pressure  
Sea Level Pressure 30.07 in    
Wind  
Wind Speed 6 mph (SSW)    
Max Wind Speed 18 mph    
Max Gust Speed 24 mph    
Visibility 10 miles    
Events      
T = Trace of Precipitation, MM = Missing Value Source: NWS Daily Summary

Daily Weather History Graph

Daily Weather History Graph

Search for Another Location

Airport:

Trip Planner

Search our weather history database for the weather conditions in past years. The results will help you decide how hot, cold, wet, or windy it might be!

Date:

Astronomy

Dec. 11, 2012 Rise Set
Actual Time 7:37 AM MST 5:13 PM MST
Civil Twilight 7:08 AM MST 5:43 PM MST
Nautical Twilight 6:35 AM MST 6:16 PM MST
Astronomical Twilight 6:03 AM MST 6:47 PM MST
Moon 5:38 AM MST (12/11) 3:55 PM MST (12/11)
Length of Visible Light 10h 34m
Length of Day
9h 36m
Waning Crescent, 4% of the Moon is Illuminated
Dec 11
Waning Crescent
Dec 13
New
Dec 19
First Quarter
Dec 28
Full
Jan 4
Last Quarter

Hourly Weather History & Observations

Time (MST) Temp. Windchill Dew Point Humidity Pressure Visibility Wind Dir Wind Speed Gust Speed Precip Events Conditions
12:53 AM 16.0 °F - 10.9 °F 81% 30.19 in 10.0 mi Calm Calm - N/A   Clear
1:53 AM 19.0 °F - 12.9 °F 77% 30.16 in 10.0 mi Calm Calm - N/A   Clear
2:53 AM 19.0 °F 9.0 °F 14.0 °F 81% 30.13 in 10.0 mi NE 8.1 mph - N/A   Clear
3:53 AM 19.9 °F 12.1 °F 15.1 °F 81% 30.12 in 10.0 mi NE 5.8 mph - N/A   Clear
4:53 AM 15.1 °F 9.4 °F 10.9 °F 84% 30.14 in 10.0 mi WNW 3.5 mph - N/A   Clear
5:53 AM 17.1 °F - 10.9 °F 77% 30.17 in 10.0 mi Calm Calm - N/A   Clear
6:53 AM 17.1 °F - 12.0 °F 81% 30.20 in 10.0 mi Calm Calm - N/A   Clear
7:53 AM 17.1 °F 10.0 °F 12.0 °F 81% 30.21 in 10.0 mi SSW 4.6 mph - N/A   Clear
8:53 AM 24.1 °F - 18.0 °F 77% 30.19 in 10.0 mi Calm Calm - N/A   Clear
9:53 AM 28.0 °F 21.7 °F 19.0 °F 69% 30.19 in 10.0 mi NE 5.8 mph - N/A   Clear
10:53 AM 34.0 °F 29.8 °F 19.9 °F 56% 30.16 in 10.0 mi East 4.6 mph - N/A   Clear
11:53 AM 39.9 °F 37.8 °F 19.0 °F 43% 30.12 in 10.0 mi NE 3.5 mph - N/A   Clear
12:53 PM 43.0 °F - 18.0 °F 37% 30.08 in 10.0 mi Calm Calm - N/A   Clear
1:53 PM 48.0 °F - 18.0 °F 30% 30.00 in 10.0 mi WSW 5.8 mph - N/A   Clear
2:53 PM 46.9 °F - 18.0 °F 32% 29.98 in 10.0 mi SW 10.4 mph 19.6 mph N/A   Clear
3:53 PM 46.0 °F 40.6 °F 18.0 °F 33% 29.96 in 10.0 mi SSW 11.5 mph - N/A   Clear
4:53 PM 41.0 °F 32.8 °F 17.1 °F 38% 29.99 in 10.0 mi SSW 16.1 mph - N/A   Clear
5:53 PM 37.0 °F 29.3 °F 16.0 °F 42% 30.01 in 10.0 mi South 11.5 mph - N/A   Clear
6:53 PM 37.0 °F 30.4 °F 16.0 °F 42% 30.01 in 10.0 mi South 9.2 mph - N/A   Clear
7:53 PM 34.0 °F 28.0 °F 16.0 °F 48% 30.01 in 10.0 mi SW 6.9 mph - N/A   Clear
8:53 PM 34.0 °F 28.0 °F 16.0 °F 48% 29.99 in 10.0 mi SW 6.9 mph - N/A   Clear
9:53 PM 33.1 °F 26.1 °F 16.0 °F 50% 29.96 in 10.0 mi SSW 8.1 mph - N/A   Clear
10:53 PM 34.0 °F 28.0 °F 16.0 °F 48% 29.93 in 10.0 mi South 6.9 mph - N/A   Clear
11:53 PM 35.1 °F 29.3 °F 16.0 °F 46% 29.88 in 10.0 mi SSW 6.9 mph - N/A   Clear